When you browse on this site, cookies collect data to enhance your experience and personalize the content and advertising you see.
Visit our Privacy Policy to learn more. By continuing to use the site, you agree to this use of cookies and data.
  • In Sweden
  • List of Countries
  • For 7 days
  • Water Temperature
  • Satellite Maps
  • Weather Map
  • Weather Widgets
  • user-avatar
    Login

    Hourly Weather San Juan

    Today, 17 July, Wednesday

    Time Temperature Precipitation Wind Pressure Humidity
    00:00 +13°C° 0 mm 1 mps 707 mmHg 57%
    01:00 +13°C° 0 mm 2 mps 707 mmHg 54%
    02:00 +12°C° 0 mm 2 mps 706 mmHg 55%
    03:00 +12°C° 0 mm 2 mps 706 mmHg 55%
    04:00 +12°C° 0 mm 2 mps 705 mmHg 56%
    05:00 +12°C° 0 mm 2 mps 705 mmHg 56%
    06:00 +12°C° 0 mm 1 mps 705 mmHg 57%
    07:00 +12°C° 0 mm 1 mps 706 mmHg 57%
    08:00 +14°C° 0 mm 1 mps 706 mmHg 49%
    09:00 +18°C° 0 mm 1 mps 706 mmHg 41%
    10:00 +20°C° 0 mm 1 mps 706 mmHg 33%
    11:00 +21°C° 0 mm 2 mps 706 mmHg 29%
    12:00 +23°C° 0 mm 2 mps 705 mmHg 26%
    13:00 +24°C° 0 mm 2 mps 705 mmHg 22%
    14:00 +24°C° 0 mm 2 mps 704 mmHg 23%
    15:00 +23°C° 0 mm 1 mps 704 mmHg 24%
    16:00 +23°C° 0 mm 1 mps 703 mmHg 24%
    17:00 +21°C° 0 mm 1 mps 703 mmHg 28%
    18:00 +19°C° 0 mm 1 mps 704 mmHg 31%
    19:00 +15°C° 0 mm 0 mps 704 mmHg 34%
    20:00 +16°C° 0 mm 1 mps 704 mmHg 34%
    21:00 +16°C° 0 mm 1 mps 704 mmHg 34%
    22:00 +15°C° 0 mm 1 mps 704 mmHg 34%
    23:00 +15°C° 0 mm 2 mps 704 mmHg 37%

    Tomorrow, 18 July, Thursday

    Time Temperature Precipitation Wind Pressure Humidity
    00:00 +14°C° 0 mm 2 mps 704 mmHg 40%
    01:00 +13°C° 0 mm 3 mps 704 mmHg 44%
    02:00 +12°C° 0 mm 5 mps 704 mmHg 49%
    03:00 +10°C° 0 mm 6 mps 705 mmHg 55%
    04:00 +10°C° 0 mm 8 mps 705 mmHg 60%
    05:00 +8°C° 0 mm 9 mps 706 mmHg 59%
    06:00 +8°C° 0 mm 9 mps 707 mmHg 58%
    07:00 +8°C° 0 mm 9 mps 708 mmHg 57%
    08:00 +10°C° 0 mm 9 mps 709 mmHg 52%
    09:00 +10°C° 0 mm 9 mps 710 mmHg 48%
    10:00 +11°C° 0 mm 9 mps 710 mmHg 43%
    11:00 +11°C° 0 mm 8 mps 710 mmHg 40%
    12:00 +11°C° 0 mm 7 mps 710 mmHg 38%
    13:00 +13°C° 0 mm 6 mps 709 mmHg 35%
    14:00 +12°C° 0 mm 5 mps 709 mmHg 34%
    15:00 +12°C° 0 mm 5 mps 709 mmHg 34%
    16:00 +12°C° 0 mm 4 mps 709 mmHg 33%
    17:00 +11°C° 0 mm 3 mps 709 mmHg 36%
    18:00 +10°C° 0 mm 3 mps 709 mmHg 39%
    19:00 +9°C° 0 mm 2 mps 709 mmHg 41%
    20:00 +8°C° 0 mm 2 mps 709 mmHg 43%
    21:00 +9°C° 0 mm 1 mps 709 mmHg 44%
    22:00 +8°C° 0 mm 1 mps 709 mmHg 45%
    23:00 +8°C° 0 mm 1 mps 708 mmHg 47%

    Day after tomorrow, 19 July, Friday

    Time Temperature Precipitation Wind Pressure Humidity
    00:00 +7°C° 0 mm 1 mps 708 mmHg 48%
    01:00 +6°C° 0 mm 1 mps 707 mmHg 50%
    02:00 +6°C° 0 mm 1 mps 706 mmHg 51%
    03:00 +6°C° 0 mm 2 mps 706 mmHg 51%
    04:00 +6°C° 0 mm 2 mps 705 mmHg 52%
    05:00 +6°C° 0 mm 2 mps 705 mmHg 52%
    06:00 +6°C° 0 mm 2 mps 704 mmHg 52%
    07:00 +6°C° 0 mm 2 mps 704 mmHg 52%
    08:00 +8°C° 0 mm 2 mps 704 mmHg 46%
    09:00 +11°C° 0 mm 3 mps 704 mmHg 40%
    10:00 +13°C° 0 mm 3 mps 704 mmHg 34%
    11:00 +16°C° 0 mm 3 mps 703 mmHg 31%
    12:00 +17°C° 0 mm 3 mps 702 mmHg 29%
    13:00 +18°C° 0 mm 2 mps 702 mmHg 26%
    14:00 +18°C° 0 mm 2 mps 701 mmHg 26%
    15:00 +18°C° 0 mm 2 mps 701 mmHg 26%
    16:00 +18°C° 0 mm 2 mps 701 mmHg 25%
    17:00 +17°C° 0 mm 2 mps 700 mmHg 29%
    18:00 +15°C° 0 mm 2 mps 700 mmHg 32%
    19:00 +13°C° 0 mm 2 mps 700 mmHg 36%
    20:00 +13°C° 0 mm 2 mps 700 mmHg 37%
    21:00 +12°C° 0 mm 2 mps 700 mmHg 39%
    22:00 +12°C° 0 mm 2 mps 700 mmHg 40%
    23:00 +10°C° 0 mm 2 mps 700 mmHg 41%

    20 July, Saturday

    Time Temperature Precipitation Wind Pressure Humidity
    00:00 +10°C° 0 mm 2 mps 700 mmHg 42%
    01:00 +9°C° 0 mm 2 mps 699 mmHg 43%
    02:00 +9°C° 0 mm 2 mps 699 mmHg 47%
    03:00 +9°C° 0 mm 2 mps 700 mmHg 51%
    04:00 +8°C° 0 mm 3 mps 700 mmHg 55%
    05:00 +8°C° 0 mm 3 mps 700 mmHg 60%
    06:00 +8°C° 0 mm 3 mps 701 mmHg 65%
    07:00 +7°C° 0 mm 4 mps 701 mmHg 69%
    08:00 +8°C° 0 mm 4 mps 701 mmHg 68%
    09:00 +9°C° 0 mm 5 mps 701 mmHg 66%
    10:00 +12°C° 0 mm 5 mps 702 mmHg 64%
    11:00 +12°C° 0 mm 5 mps 701 mmHg 61%
    12:00 +13°C° 0 mm 5 mps 699 mmHg 57%
    13:00 +14°C° 0 mm 4 mps 698 mmHg 54%
    14:00 +13°C° 0 mm 3 mps 698 mmHg 53%
    15:00 +13°C° 0 mm 3 mps 697 mmHg 53%
    16:00 +14°C° 0 mm 2 mps 697 mmHg 53%
    17:00 +13°C° 0 mm 2 mps 697 mmHg 57%
    18:00 +11°C° 0 mm 1 mps 697 mmHg 61%
    19:00 +10°C° 0 mm 1 mps 697 mmHg 65%
    20:00 +10°C° 0 mm 1 mps 696 mmHg 66%
    21:00 +9°C° 0 mm 1 mps 696 mmHg 67%
    22:00 +9°C° 0 mm 1 mps 696 mmHg 67%
    23:00 +9°C° 0 mm 2 mps 696 mmHg 64%

    21 July, Sunday

    Time Temperature Precipitation Wind Pressure Humidity
    00:00 +9°C° 0 mm 2 mps 696 mmHg 60%
    01:00 +10°C° 0 mm 3 mps 696 mmHg 56%
    02:00 +11°C° 0 mm 4 mps 696 mmHg 51%
    03:00 +12°C° 0 mm 5 mps 696 mmHg 46%
    04:00 +13°C° 0 mm 6 mps 696 mmHg 40%
    05:00 +12°C° 0 mm 5 mps 696 mmHg 43%
    06:00 +11°C° 0 mm 4 mps 697 mmHg 45%
    07:00 +10°C° 0 mm 3 mps 697 mmHg 48%
    08:00 +12°C° 0 mm 4 mps 697 mmHg 45%
    09:00 +13°C° 0 mm 5 mps 698 mmHg 43%
    10:00 +14°C° 0 mm 6 mps 698 mmHg 40%
    11:00 +14°C° 0 mm 7 mps 698 mmHg 39%
    12:00 +13°C° 0 mm 8 mps 697 mmHg 39%
    13:00 +13°C° 0 mm 9 mps 697 mmHg 39%
    14:00 +12°C° 0 mm 8 mps 698 mmHg 40%
    15:00 +12°C° 0 mm 8 mps 698 mmHg 41%
    16:00 +11°C° 0 mm 8 mps 698 mmHg 42%
    17:00 +10°C° 0 mm 7 mps 699 mmHg 43%
    18:00 +9°C° 0 mm 7 mps 700 mmHg 43%
    19:00 +8°C° 0 mm 7 mps 701 mmHg 44%
    20:00 +6°C° 0 mm 7 mps 702 mmHg 40%
    21:00 +6°C° 0 mm 8 mps 703 mmHg 36%
    22:00 +5°C° 0 mm 8 mps 704 mmHg 33%
    23:00 +5°C° 0 mm 7 mps 705 mmHg 34%

    22 July, Monday

    Time Temperature Precipitation Wind Pressure Humidity
    00:00 +5°C° 0 mm 7 mps 705 mmHg 36%
    01:00 +5°C° 0 mm 6 mps 706 mmHg 37%
    02:00 +5°C° 0 mm 5 mps 706 mmHg 41%
    03:00 +5°C° 0 mm 5 mps 707 mmHg 45%
    04:00 +5°C° 0 mm 4 mps 707 mmHg 49%
    05:00 +5°C° 0 mm 3 mps 708 mmHg 48%
    06:00 +4°C° 0 mm 3 mps 708 mmHg 46%
    07:00 +5°C° 0 mm 2 mps 709 mmHg 44%
    08:00 +7°C° 0 mm 2 mps 709 mmHg 38%
    09:00 +8°C° 0 mm 3 mps 709 mmHg 32%
    10:00 +9°C° 0 mm 3 mps 709 mmHg 26%
    11:00 +10°C° 0 mm 3 mps 709 mmHg 25%
    12:00 +10°C° 0 mm 3 mps 708 mmHg 24%
    13:00 +12°C° 0 mm 2 mps 707 mmHg 22%
    14:00 +12°C° 0 mm 2 mps 707 mmHg 23%
    15:00 +12°C° 0 mm 2 mps 707 mmHg 23%
    16:00 +12°C° 0 mm 2 mps 707 mmHg 23%
    17:00 +9°C° 0 mm 2 mps 707 mmHg 25%
    18:00 +9°C° 0 mm 1 mps 708 mmHg 27%
    19:00 +8°C° 0 mm 1 mps 708 mmHg 29%
    20:00 +7°C° 0 mm 1 mps 709 mmHg 30%
    21:00 +7°C° 0 mm 1 mps 709 mmHg 31%
    22:00 +6°C° 0 mm 1 mps 709 mmHg 32%
    23:00 +5°C° 0 mm 2 mps 710 mmHg 33%
    Show more